| time (UTC) | temp F | wind direction | speed MPH | gust MPH | rain 1hr in | rain 24hr in | rain mn in | humidity % | barometer mb |
| 20260507083141 | 39 | 0 | 0.0 | 1.0 | 0.00 | 0.00 | 0.00 | 96 | 1012.6 |
| 20260507082640 | 39 | 0 | 0.0 | 1.0 | 0.00 | 0.00 | 0.00 | 96 | 1012.5 |
| 20260507082359 | 40 | 46 | 0.0 | 1.0 | 0.00 | 0.00 | 0.00 | 97 | 1012.4 |
| 20260507081640 | 40 | 0 | 0.0 | 1.0 | 0.00 | 0.00 | 0.00 | 97 | 1012.4 |
| 20260507081141 | 40 | 0 | 0.0 | 1.0 | 0.00 | 0.00 | 0.00 | 97 | 1012.4 |
| 20260507080640 | 40 | 0 | 0.0 | 1.0 | 0.00 | 0.01 | 0.00 | 97 | 1012.4 |
| 20260507080141 | 40 | 348 | 0.0 | 1.0 | 0.00 | 0.01 | 0.00 | 97 | 1012.4 |
| 20260507075644 | 40 | 0 | 0.0 | 1.0 | 0.00 | 0.01 | 0.00 | 96 | 1012.4 |
| 20260507075143 | 40 | 0 | 0.0 | 1.0 | 0.00 | 0.01 | 0.00 | 96 | 1012.5 |
| 20260507074641 | 40 | 0 | 0.0 | 1.0 | 0.00 | 0.02 | 0.00 | 96 | 1012.5 |
| 20260507074128 | 40 | 0 | 0.0 | 1.0 | 0.00 | 0.03 | 0.00 | 96 | 1012.5 |
| 20260507073628 | 40 | 0 | 0.0 | 2.0 | 0.00 | 0.03 | 0.00 | 96 | 1012.5 |
| 20260507073124 | 41 | 0 | 0.0 | 2.0 | 0.00 | 0.04 | 0.00 | 96 | 1012.4 |
| 20260507072626 | 41 | 65 | 1.0 | 2.0 | 0.00 | 0.04 | 0.00 | 96 | 1012.4 |
| 20260507072126 | 41 | 67 | 1.0 | 2.0 | 0.00 | 0.05 | 0.00 | 96 | 1012.4 |
| 20260507071627 | 41 | 70 | 1.0 | 2.0 | 0.00 | 0.06 | 0.00 | 97 | 1012.4 |
| 20260507071349 | 41 | 0 | 0.0 | 1.0 | 0.00 | 0.09 | 0.00 | 97 | 1012.4 |
| 20260507070621 | 41 | 0 | 0.0 | 2.0 | 0.00 | 0.11 | 0.00 | 97 | 1012.4 |
| 20260507070120 | 41 | 0 | 0.0 | 2.0 | 0.00 | 0.12 | 0.00 | 96 | 1012.4 |
| 20260507065612 | 41 | 0 | 0.0 | 1.0 | 0.00 | 0.13 | 0.00 | 96 | 1012.4 |
| 20260507065329 | 41 | 67 | 0.0 | 1.0 | 0.00 | 0.13 | 0.00 | 96 | 1012.5 |
| 20260507064611 | 42 | 70 | 0.0 | 2.0 | 0.00 | 0.13 | 0.00 | 96 | 1012.5 |
| 20260507064110 | 42 | 61 | 0.0 | 2.0 | 0.00 | 0.13 | 0.00 | 96 | 1012.5 |
| 20260507063840 | 42 | 0 | 0.0 | 1.0 | 0.00 | 0.13 | 0.00 | 96 | 1012.6 |
| 20260507063113 | 42 | 0 | 0.0 | 1.0 | 0.00 | 0.14 | 0.00 | 96 | 1012.6 |
| 20260507062613 | 42 | 161 | 0.0 | 1.0 | 0.00 | 0.14 | 0.00 | 96 | 1012.6 |
| 20260507062113 | 42 | 0 | 0.0 | 1.0 | 0.00 | 0.14 | 0.00 | 96 | 1012.6 |
| 20260507061614 | 43 | 0 | 0.0 | 1.0 | 0.00 | 0.15 | 0.00 | 96 | 1012.6 |
| 20260507061111 | 43 | 0 | 0.0 | 0.0 | 0.00 | 0.15 | 0.00 | 96 | 1012.6 |
| 20260507060609 | 43 | 0 | 0.0 | 2.0 | 0.00 | 0.17 | 0.00 | 96 | 1012.7 |
| 20260507060109 | 43 | 25 | 0.0 | 2.0 | 0.00 | 0.19 | 0.00 | 95 | 1012.7 |
| 20260507055818 | 43 | 92 | 1.0 | 2.0 | 0.00 | 0.20 | 0.00 | 95 | 1012.7 |
| 20260507055100 | 43 | 0 | 1.0 | 2.0 | 0.00 | 0.21 | 0.00 | 96 | 1012.7 |
| 20260507054558 | 43 | 60 | 1.0 | 2.0 | 0.00 | 0.22 | 0.00 | 95 | 1012.7 |
| 20260507054315 | 43 | 0 | 0.0 | 2.0 | 0.00 | 0.23 | 0.00 | 95 | 1012.8 |
| 20260507053806 | 43 | 52 | 0.0 | 2.0 | 0.00 | 0.24 | 0.00 | 95 | 1012.8 |
| 20260507053042 | 43 | 0 | 0.0 | 2.0 | 0.00 | 0.24 | 0.00 | 95 | 1012.8 |
| 20260507052543 | 44 | 0 | 0.0 | 2.0 | 0.00 | 0.25 | 0.00 | 95 | 1012.8 |
| 20260507052043 | 44 | 18 | 0.0 | 2.0 | 0.00 | 0.27 | 0.00 | 95 | 1012.9 |
| 20260507051542 | 44 | 0 | 0.0 | 1.0 | 0.00 | 0.29 | 0.00 | 94 | 1013.1 |
| 20260507051044 | 44 | 4 | 0.0 | 1.0 | 0.00 | 0.31 | 0.00 | 94 | 1013.2 |
| 20260507050810 | 44 | 0 | 0.0 | 0.0 | 0.00 | 0.33 | 0.00 | 93 | 1013.3 |
| 20260507050044 | 44 | 0 | 0.0 | 0.0 | 0.00 | 0.37 | 0.00 | 93 | 1013.5 |
| 20260507045542 | 44 | 0 | 0.0 | 0.0 | 0.00 | 0.40 | 0.00 | 93 | 1013.5 |
| 20260507045315 | 45 | 0 | 0.0 | 1.0 | 0.00 | 0.42 | 0.00 | 92 | 1013.5 |
| 20260507044537 | 45 | 0 | 0.0 | 1.0 | 0.00 | 0.43 | 0.00 | 92 | 1013.5 |
| 20260507044033 | 45 | 351 | 0.0 | 0.0 | 0.00 | 0.43 | 0.00 | 92 | 1013.4 |
| 20260507043521 | 45 | 0 | 0.0 | 2.0 | 0.00 | 0.44 | 0.00 | 93 | 1013.3 |
| 20260507043013 | 45 | 335 | 1.0 | 2.0 | 0.00 | 0.46 | 0.00 | 93 | 1013.2 |
| 20260507042513 | 45 | 0 | 0.0 | 2.0 | 0.00 | 0.46 | 0.00 | 93 | 1013.2 |
| 20260507042012 | 45 | 0 | 1.0 | 2.0 | 0.00 | 0.47 | 0.00 | 93 | 1013.2 |
| 20260507041514 | 45 | 57 | 0.0 | 2.0 | 0.00 | 0.48 | 0.00 | 93 | 1013.2 |
| 20260507041248 | 45 | 73 | 0.0 | 2.0 | 0.00 | 0.49 | 0.00 | 93 | 1013.2 |
| 20260507040517 | 45 | 64 | 0.0 | 2.0 | 0.00 | 0.50 | 0.00 | 93 | 1013.2 |
| 20260507040014 | 45 | 0 | 0.0 | 2.0 | 0.00 | 0.50 | 0.00 | 92 | 1013.1 |
| 20260507035737 | 45 | 99 | 1.0 | 2.0 | 0.00 | 0.50 | 0.50 | 92 | 1013.2 |
| 20260507035015 | 45 | 0 | 1.0 | 2.0 | 0.00 | 0.51 | 0.50 | 92 | 1013.3 |
| 20260507034515 | 45 | 85 | 0.0 | 2.0 | 0.00 | 0.52 | 0.50 | 92 | 1013.4 |
| 20260507034011 | 46 | 0 | 1.0 | 2.0 | 0.00 | 0.52 | 0.50 | 91 | 1013.5 |
| 20260507033507 | 46 | 0 | 1.0 | 2.0 | 0.00 | 0.52 | 0.50 | 90 | 1013.5 |
| 20260507033006 | 46 | 64 | 1.0 | 2.0 | 0.00 | 0.52 | 0.50 | 89 | 1013.6 |
| 20260507032505 | 46 | 51 | 1.0 | 2.0 | 0.00 | 0.52 | 0.50 | 89 | 1013.7 |
| 20260507032241 | 46 | 0 | 1.0 | 3.0 | 0.00 | 0.52 | 0.50 | 90 | 1013.6 |
| 20260507031505 | 46 | 75 | 1.0 | 3.0 | 0.00 | 0.52 | 0.50 | 89 | 1013.7 |
| 20260507031004 | 46 | 64 | 1.0 | 3.0 | 0.00 | 0.52 | 0.50 | 88 | 1013.8 |
| 20260507030505 | 46 | 65 | 1.0 | 2.0 | 0.00 | 0.52 | 0.50 | 88 | 1013.9 |
| 20260507030456 | 46 | 80 | 1.0 | 2.0 | 0.00 | 0.52 | 0.50 | 88 | 1013.9 |
| 20260507025504 | 46 | 64 | 1.0 | 3.0 | 0.00 | 0.52 | 0.50 | 88 | 1013.9 |
| 20260507025222 | 47 | 87 | 1.0 | 3.0 | 0.00 | 0.52 | 0.50 | 87 | 1013.9 |
| 20260507024726 | 47 | 121 | 1.0 | 3.0 | 0.00 | 0.52 | 0.50 | 87 | 1013.9 |
| 20260507024005 | 47 | 0 | 1.0 | 3.0 | 0.00 | 0.53 | 0.50 | 87 | 1013.9 |
| 20260507023730 | 47 | 69 | 0.0 | 2.0 | 0.00 | 0.54 | 0.50 | 87 | 1013.9 |
| 20260507023005 | 47 | 60 | 0.0 | 2.0 | 0.00 | 0.54 | 0.50 | 86 | 1014.0 |
| 20260507022504 | 47 | 0 | 0.0 | 2.0 | 0.00 | 0.56 | 0.50 | 84 | 1014.0 |
| 20260507022005 | 47 | 0 | 1.0 | 2.0 | 0.00 | 0.57 | 0.50 | 83 | 1014.0 |
| 20260507021504 | 47 | 0 | 0.0 | 2.0 | 0.00 | 0.57 | 0.50 | 83 | 1014.0 |
| 20260507021001 | 47 | 64 | 0.0 | 2.0 | 0.00 | 0.58 | 0.50 | 83 | 1013.9 |
| 20260507020503 | 48 | 52 | 0.0 | 2.0 | 0.00 | 0.59 | 0.50 | 84 | 1013.8 |
| 20260507020002 | 48 | 0 | 0.0 | 2.0 | 0.00 | 0.60 | 0.50 | 84 | 1013.8 |
| 20260507015503 | 48 | 0 | 0.0 | 1.0 | 0.00 | 0.61 | 0.50 | 81 | 1013.8 |
| 20260507015002 | 48 | 0 | 0.0 | 1.0 | 0.00 | 0.61 | 0.50 | 80 | 1013.7 |
| 20260507014725 | 48 | 0 | 0.0 | 1.0 | 0.00 | 0.62 | 0.50 | 81 | 1013.7 |
| 20260507014002 | 48 | 0 | 0.0 | 1.0 | 0.00 | 0.62 | 0.50 | 82 | 1013.6 |
| 20260507013501 | 48 | 0 | 0.0 | 1.0 | 0.00 | 0.62 | 0.50 | 83 | 1013.5 |
| 20260507013002 | 48 | 0 | 0.0 | 1.0 | 0.00 | 0.62 | 0.50 | 83 | 1013.4 |
| 20260507012504 | 49 | 0 | 0.0 | 1.0 | 0.00 | 0.62 | 0.50 | 82 | 1013.4 |
| 20260507012003 | 49 | 0 | 0.0 | 2.0 | 0.00 | 0.63 | 0.50 | 81 | 1013.4 |
| 20260507011503 | 49 | 0 | 0.0 | 2.0 | 0.00 | 0.64 | 0.50 | 80 | 1013.5 |
| 20260507011000 | 49 | 47 | 0.0 | 2.0 | 0.00 | 0.66 | 0.50 | 79 | 1013.5 |
| 20260507010501 | 50 | 0 | 0.0 | 1.0 | 0.00 | 0.69 | 0.50 | 79 | 1013.5 |
| 20260507010001 | 50 | 0 | 0.0 | 1.0 | 0.00 | 0.70 | 0.50 | 77 | 1013.5 |
| 20260507005501 | 50 | 303 | 0.0 | 2.0 | 0.00 | 0.71 | 0.50 | 75 | 1013.6 |
| 20260507005001 | 51 | 358 | 0.0 | 2.0 | 0.00 | 0.72 | 0.50 | 75 | 1013.6 |
| 20260507004731 | 51 | 0 | 0.0 | 2.0 | 0.00 | 0.72 | 0.50 | 74 | 1013.5 |
| 20260507004002 | 52 | 0 | 0.0 | 2.0 | 0.00 | 0.72 | 0.50 | 74 | 1013.5 |
| 20260507003459 | 52 | 298 | 0.0 | 2.0 | 0.00 | 0.72 | 0.50 | 75 | 1013.4 |
| 20260507002959 | 53 | 0 | 0.0 | 2.0 | 0.00 | 0.72 | 0.50 | 75 | 1013.3 |
| 20260507002458 | 53 | 40 | 0.0 | 2.0 | 0.00 | 0.72 | 0.50 | 70 | 1013.4 |
| 20260507001957 | 53 | 0 | 0.0 | 2.0 | 0.00 | 0.72 | 0.50 | 72 | 1013.3 |
| 20260507001456 | 54 | 0 | 0.0 | 2.0 | 0.00 | 0.73 | 0.50 | 70 | 1013.2 |
| 20260507000954 | 54 | 32 | 1.0 | 2.0 | 0.00 | 0.73 | 0.50 | 71 | 1013.1 |
| 20260507000455 | 55 | 330 | 1.0 | 2.0 | 0.00 | 0.73 | 0.50 | 67 | 1013.1 |
| 20260506235955 | 55 | 0 | 1.0 | 2.0 | 0.00 | 0.73 | 0.50 | 63 | 1013.3 |
| 20260506235454 | 56 | 341 | 1.0 | 6.0 | 0.00 | 0.73 | 0.50 | 61 | 1013.1 |
| 20260506234955 | 56 | 0 | 1.0 | 6.0 | 0.00 | 0.74 | 0.50 | 61 | 1013.2 |
| 20260506234455 | 56 | 41 | 1.0 | 6.0 | 0.00 | 0.74 | 0.50 | 61 | 1013.4 |
| 20260506233954 | 56 | 251 | 1.0 | 3.0 | 0.00 | 0.74 | 0.50 | 60 | 1013.3 |
| 20260506233453 | 56 | 155 | 1.0 | 3.0 | 0.00 | 0.74 | 0.50 | 59 | 1013.4 |
| 20260506232951 | 56 | 27 | 1.0 | 5.0 | 0.00 | 0.74 | 0.50 | 60 | 1013.3 |
| 20260506232450 | 56 | 94 | 1.0 | 5.0 | 0.00 | 0.74 | 0.50 | 60 | 1013.1 |
| 20260506231949 | 56 | 14 | 1.0 | 4.0 | 0.00 | 0.74 | 0.50 | 60 | 1013.4 |
| 20260506231450 | 57 | 337 | 1.0 | 5.0 | 0.00 | 0.74 | 0.50 | 59 | 1013.2 |
| 20260506230951 | 57 | 57 | 1.0 | 5.0 | 0.00 | 0.74 | 0.50 | 58 | 1013.5 |
| 20260506230723 | 57 | 0 | 1.0 | 4.0 | 0.00 | 0.74 | 0.50 | 62 | 1013.1 |
| 20260506225950 | 57 | 65 | 1.0 | 4.0 | 0.00 | 0.74 | 0.50 | 58 | 1013.4 |
| 20260506225450 | 56 | 109 | 2.0 | 4.0 | 0.00 | 0.74 | 0.50 | 58 | 1013.5 |
| 20260506224951 | 56 | 28 | 2.0 | 5.0 | 0.00 | 0.74 | 0.50 | 55 | 1013.6 |
| 20260506224451 | 56 | 334 | 1.0 | 5.0 | 0.00 | 0.74 | 0.50 | 56 | 1013.5 |
| 20260506223952 | 56 | 84 | 1.0 | 4.0 | 0.00 | 0.74 | 0.50 | 59 | 1013.5 |
| 20260506223452 | 56 | 46 | 2.0 | 5.0 | 0.00 | 0.74 | 0.50 | 59 | 1013.3 |
| 20260506223217 | 56 | 316 | 2.0 | 5.0 | 0.00 | 0.74 | 0.50 | 55 | 1013.7 |
| 20260506222449 | 56 | 11 | 2.0 | 5.0 | 0.00 | 0.75 | 0.50 | 56 | 1013.8 |
| 20260506221947 | 57 | 31 | 1.0 | 5.0 | 0.00 | 0.75 | 0.50 | 60 | 1013.7 |
| 20260506221448 | 57 | 224 | 2.0 | 4.0 | 0.00 | 0.75 | 0.50 | 55 | 1013.7 |
| 20260506220944 | 57 | 307 | 2.0 | 4.0 | 0.00 | 0.75 | 0.50 | 54 | 1013.9 |
| 20260506220444 | 57 | 25 | 1.0 | 3.0 | 0.00 | 0.76 | 0.50 | 56 | 1013.8 |
| 20260506215944 | 57 | 323 | 1.0 | 6.0 | 0.00 | 0.76 | 0.50 | 54 | 1013.7 |
| 20260506215445 | 57 | 220 | 2.0 | 6.0 | 0.00 | 0.76 | 0.50 | 52 | 1014.2 |
| 20260506215213 | 57 | 305 | 2.0 | 6.0 | 0.00 | 0.77 | 0.50 | 51 | 1014.0 |
| 20260506214444 | 57 | 310 | 2.0 | 4.0 | 0.00 | 0.77 | 0.50 | 57 | 1013.6 |
| 20260506214215 | 57 | 29 | 2.0 | 5.0 | 0.00 | 0.77 | 0.50 | 54 | 1013.6 |
| 20260506213446 | 57 | 5 | 2.0 | 6.0 | 0.00 | 0.77 | 0.50 | 53 | 1014.1 |
| 20260506212942 | 57 | 314 | 3.0 | 6.0 | 0.00 | 0.77 | 0.50 | 51 | 1014.1 |
| 20260506212443 | 57 | 4 | 3.0 | 6.0 | 0.00 | 0.77 | 0.50 | 51 | 1013.9 |
| 20260506211942 | 57 | 32 | 2.0 | 6.0 | 0.00 | 0.77 | 0.50 | 51 | 1013.8 |
| 20260506211705 | 57 | 355 | 2.0 | 6.0 | 0.00 | 0.77 | 0.50 | 50 | 1013.7 |
| 20260506210945 | 57 | 16 | 1.0 | 5.0 | 0.00 | 0.77 | 0.50 | 54 | 1013.3 |
| 20260506210444 | 57 | 290 | 1.0 | 4.0 | 0.00 | 0.77 | 0.50 | 51 | 1013.5 |
| 20260506205945 | 57 | 0 | 1.0 | 4.0 | 0.00 | 0.77 | 0.50 | 51 | 1013.4 |
| 20260506205446 | 57 | 0 | 2.0 | 5.0 | 0.00 | 0.77 | 0.50 | 56 | 1013.6 |
| 20260506205204 | 57 | 76 | 2.0 | 5.0 | 0.00 | 0.77 | 0.50 | 49 | 1013.8 |
| 20260506204445 | 57 | 69 | 2.0 | 6.0 | 0.00 | 0.78 | 0.50 | 52 | 1013.4 |
| 20260506203944 | 57 | 296 | 2.0 | 6.0 | 0.00 | 0.78 | 0.50 | 51 | 1013.5 |
| 20260506203439 | 57 | 331 | 2.0 | 6.0 | 0.00 | 0.78 | 0.50 | 51 | 1013.5 |
| 20260506202939 | 57 | 354 | 2.0 | 6.0 | 0.00 | 0.78 | 0.50 | 52 | 1013.8 |
| 20260506202658 | 57 | 11 | 2.0 | 4.0 | 0.00 | 0.79 | 0.50 | 50 | 1013.7 |
| 20260506201940 | 57 | 314 | 2.0 | 6.0 | 0.00 | 0.80 | 0.50 | 51 | 1013.8 |
| 20260506201440 | 57 | 36 | 2.0 | 7.0 | 0.00 | 0.80 | 0.50 | 53 | 1013.5 |
| 20260506200940 | 57 | 347 | 2.0 | 7.0 | 0.00 | 0.81 | 0.50 | 54 | 1013.5 |
| 20260506200440 | 57 | 31 | 2.0 | 6.0 | 0.00 | 0.81 | 0.50 | 53 | 1013.5 |
| 20260506200203 | 57 | 97 | 2.0 | 5.0 | 0.00 | 0.82 | 0.50 | 53 | 1013.7 |
| 20260506195439 | 58 | 349 | 2.0 | 9.0 | 0.00 | 0.83 | 0.50 | 55 | 1013.6 |
| 20260506194939 | 57 | 217 | 4.0 | 9.0 | 0.00 | 0.84 | 0.50 | 57 | 1013.4 |
| 20260506194434 | 58 | 22 | 4.0 | 8.0 | 0.00 | 0.85 | 0.50 | 54 | 1013.7 |
| 20260506193932 | 58 | 46 | 4.0 | 7.0 | 0.00 | 0.87 | 0.50 | 51 | 1013.4 |
| 20260506193434 | 58 | 59 | 3.0 | 7.0 | 0.00 | 0.90 | 0.50 | 53 | 1013.6 |
| 20260506192933 | 58 | 10 | 3.0 | 8.0 | 0.00 | 0.95 | 0.50 | 50 | 1013.7 |
| 20260506192434 | 58 | 31 | 4.0 | 8.0 | 0.00 | 1.00 | 0.50 | 50 | 1013.4 |
| 20260506191933 | 58 | 41 | 4.0 | 10.0 | 0.00 | 1.02 | 0.50 | 49 | 1013.6 |
| 20260506191432 | 58 | 6 | 4.0 | 10.0 | 0.00 | 1.02 | 0.50 | 51 | 1013.5 |
| 20260506190932 | 58 | 330 | 3.0 | 7.0 | 0.00 | 1.02 | 0.50 | 47 | 1013.9 |
| 20260506190432 | 58 | 240 | 3.0 | 7.0 | 0.00 | 1.02 | 0.50 | 47 | 1013.5 |
| 20260506185932 | 58 | 6 | 3.0 | 8.0 | 0.00 | 1.02 | 0.50 | 51 | 1013.5 |
| 20260506185432 | 58 | 334 | 3.0 | 8.0 | 0.00 | 1.02 | 0.50 | 58 | 1013.4 |
| 20260506185157 | 57 | 62 | 4.0 | 7.0 | 0.00 | 1.02 | 0.50 | 50 | 1013.8 |
| 20260506184433 | 58 | 299 | 4.0 | 7.0 | 0.00 | 1.02 | 0.50 | 49 | 1013.4 |
| 20260506183931 | 58 | 44 | 4.0 | 8.0 | 0.00 | 1.01 | 0.50 | 52 | 1013.4 |
| 20260506183710 | 58 | 39 | 4.0 | 8.0 | 0.00 | 1.01 | 0.50 | 49 | 1013.5 |
| 20260506183158 | 58 | 338 | 4.0 | 9.0 | 0.00 | 1.01 | 0.50 | 51 | 1013.5 |
| 20260506182431 | 58 | 64 | 4.0 | 10.0 | 0.00 | 1.01 | 0.50 | 50 | 1013.1 |
| 20260506181932 | 58 | 15 | 4.0 | 10.0 | 0.00 | 1.01 | 0.50 | 49 | 1013.6 |
| 20260506181917 | 58 | 85 | 4.0 | 10.0 | 0.00 | 1.01 | 0.50 | 51 | 1013.6 |
| 20260506180931 | 58 | 11 | 4.0 | 9.0 | 0.00 | 1.01 | 0.50 | 50 | 1013.2 |
| 20260506180431 | 59 | 21 | 5.0 | 10.0 | 0.00 | 1.01 | 0.50 | 49 | 1013.4 |
| 20260506175932 | 59 | 46 | 4.0 | 10.0 | 0.00 | 1.01 | 0.50 | 56 | 1013.4 |
| 20260506175431 | 59 | 283 | 4.0 | 9.0 | 0.00 | 1.01 | 0.50 | 54 | 1013.3 |
| 20260506174932 | 59 | 299 | 4.0 | 9.0 | 0.00 | 1.01 | 0.50 | 51 | 1013.8 |
| 20260506174430 | 59 | 299 | 3.0 | 10.0 | 0.00 | 1.01 | 0.50 | 53 | 1014.1 |
| 20260506174156 | 58 | 352 | 3.0 | 10.0 | 0.00 | 1.01 | 0.50 | 54 | 1013.6 |
| 20260506173427 | 58 | 21 | 3.0 | 9.0 | 0.00 | 1.01 | 0.50 | 57 | 1013.4 |
| 20260506172925 | 57 | 296 | 4.0 | 9.0 | 0.00 | 1.01 | 0.50 | 55 | 1013.4 |
| 20260506172425 | 58 | 65 | 4.0 | 10.0 | 0.00 | 1.01 | 0.50 | 56 | 1013.5 |
| 20260506171925 | 57 | 355 | 4.0 | 10.0 | 0.00 | 1.01 | 0.50 | 54 | 1013.1 |
| 20260506171425 | 58 | 315 | 4.0 | 8.0 | 0.00 | 1.01 | 0.50 | 55 | 1014.3 |
| 20260506170926 | 57 | 83 | 4.0 | 8.0 | 0.00 | 1.01 | 0.50 | 57 | 1013.6 |
| 20260506170424 | 56 | 73 | 4.0 | 9.0 | 0.00 | 1.01 | 0.50 | 57 | 1013.7 |
| 20260506165926 | 56 | 71 | 4.0 | 9.0 | 0.00 | 1.01 | 0.50 | 53 | 1014.1 |
| 20260506165425 | 56 | 88 | 4.0 | 8.0 | 0.00 | 1.01 | 0.50 | 55 | 1013.9 |
| 20260506164926 | 56 | 23 | 3.0 | 9.0 | 0.00 | 1.01 | 0.50 | 58 | 1013.6 |
| 20260506164424 | 57 | 25 | 3.0 | 9.0 | 0.00 | 1.01 | 0.50 | 56 | 1014.1 |
| 20260506163924 | 57 | 117 | 2.0 | 7.0 | 0.00 | 1.01 | 0.50 | 58 | 1013.3 |
| 20260506163424 | 56 | 277 | 3.0 | 7.0 | 0.00 | 1.01 | 0.50 | 57 | 1013.7 |
| 20260506162925 | 56 | 353 | 4.0 | 9.0 | 0.00 | 1.01 | 0.50 | 57 | 1013.9 |
| 20260506162424 | 56 | 54 | 3.0 | 9.0 | 0.00 | 1.01 | 0.50 | 58 | 1013.5 |
| 20260506161925 | 56 | 339 | 3.0 | 7.0 | 0.00 | 1.01 | 0.50 | 59 | 1013.8 |
| 20260506161701 | 55 | 347 | 3.0 | 8.0 | 0.00 | 1.01 | 0.50 | 57 | 1013.6 |
| 20260506161151 | 55 | 287 | 4.0 | 8.0 | 0.00 | 1.01 | 0.50 | 63 | 1013.6 |
| 20260506160425 | 55 | 263 | 3.0 | 8.0 | 0.00 | 1.01 | 0.50 | 62 | 1013.5 |
| 20260506155925 | 55 | 318 | 3.0 | 8.0 | 0.00 | 1.01 | 0.50 | 65 | 1013.3 |
| 20260506155426 | 55 | 37 | 3.0 | 9.0 | 0.00 | 1.01 | 0.50 | 64 | 1013.3 |
| 20260506154924 | 55 | 358 | 3.0 | 9.0 | 0.00 | 1.01 | 0.50 | 62 | 1013.4 |
| 20260506154421 | 55 | 316 | 2.0 | 9.0 | 0.00 | 1.01 | 0.50 | 65 | 1013.6 |
| 20260506154152 | 54 | 129 | 3.0 | 9.0 | 0.00 | 1.01 | 0.50 | 63 | 1013.7 |
| 20260506153423 | 54 | 82 | 4.0 | 9.0 | 0.00 | 1.01 | 0.50 | 65 | 1013.6 |
| 20260506152921 | 54 | 0 | 3.0 | 9.0 | 0.00 | 1.01 | 0.50 | 64 | 1013.4 |
| 20260506152419 | 53 | 43 | 4.0 | 8.0 | 0.00 | 1.01 | 0.50 | 64 | 1013.5 |
| 20260506151920 | 53 | 43 | 3.0 | 8.0 | 0.00 | 1.01 | 0.50 | 66 | 1013.4 |
| 20260506151420 | 53 | 346 | 3.0 | 8.0 | 0.00 | 1.01 | 0.50 | 66 | 1013.3 |
| 20260506150918 | 53 | 354 | 4.0 | 8.0 | 0.00 | 1.01 | 0.50 | 64 | 1013.1 |
| 20260506150645 | 53 | 18 | 4.0 | 8.0 | 0.00 | 1.01 | 0.50 | 65 | 1013.2 |
| 20260506145919 | 52 | 334 | 4.0 | 9.0 | 0.00 | 1.01 | 0.50 | 65 | 1012.9 |
| 20260506145647 | 52 | 42 | 4.0 | 9.0 | 0.00 | 1.01 | 0.50 | 69 | 1012.7 |
| 20260506144917 | 52 | 10 | 4.0 | 9.0 | 0.00 | 1.01 | 0.50 | 68 | 1012.6 |
| 20260506144417 | 52 | 322 | 4.0 | 9.0 | 0.00 | 1.01 | 0.50 | 69 | 1012.4 |
| 20260506144144 | 52 | 304 | 3.0 | 9.0 | 0.00 | 1.01 | 0.50 | 73 | 1012.1 |
| 20260506143417 | 51 | 4 | 4.0 | 11.0 | 0.00 | 1.01 | 0.50 | 73 | 1012.2 |
| 20260506142918 | 51 | 336 | 5.0 | 11.0 | 0.00 | 1.01 | 0.50 | 71 | 1012.3 |
| 20260506142417 | 51 | 75 | 4.0 | 8.0 | 0.00 | 1.01 | 0.50 | 77 | 1012.2 |
| 20260506141917 | 50 | 93 | 3.0 | 7.0 | 0.00 | 1.01 | 0.50 | 75 | 1012.3 |
| 20260506141417 | 50 | 72 | 3.0 | 9.0 | 0.00 | 1.01 | 0.50 | 76 | 1012.2 |
| 20260506140918 | 50 | 303 | 4.0 | 9.0 | 0.00 | 1.01 | 0.50 | 77 | 1012.0 |
| 20260506140911 | 50 | 328 | 4.0 | 9.0 | 0.00 | 1.01 | 0.50 | 78 | 1012.0 |
| 20260506135918 | 50 | 357 | 3.0 | 7.0 | 0.00 | 1.01 | 0.50 | 78 | 1012.0 |
| 20260506135420 | 49 | 298 | 3.0 | 8.0 | 0.00 | 1.01 | 0.50 | 81 | 1011.9 |
| 20260506134412 | 49 | 34 | 3.0 | 6.0 | 0.00 | 1.01 | 0.50 | 81 | 1012.2 |
| 20260506133902 | 48 | 272 | 3.0 | 6.0 | 0.00 | 1.01 | 0.50 | 83 | 1012.1 |
| 20260506133633 | 48 | 74 | 3.0 | 6.0 | 0.00 | 1.01 | 0.50 | 83 | 1012.0 |
| 20260506132900 | 48 | 292 | 2.0 | 5.0 | 0.00 | 1.01 | 0.50 | 84 | 1011.9 |
| 20260506132846 | 47 | 305 | 2.0 | 5.0 | 0.00 | 1.01 | 0.50 | 84 | 1011.6 |
| 20260506131852 | 47 | 333 | 2.0 | 5.0 | 0.00 | 1.01 | 0.50 | 84 | 1011.6 |
| 20260506131349 | 47 | 344 | 2.0 | 4.0 | 0.00 | 1.01 | 0.50 | 85 | 1011.7 |
| 20260506130848 | 47 | 24 | 2.0 | 7.0 | 0.00 | 1.01 | 0.50 | 85 | 1011.7 |
| 20260506130616 | 47 | 314 | 2.0 | 7.0 | 0.00 | 1.01 | 0.50 | 86 | 1011.7 |
| 20260506125852 | 47 | 356 | 3.0 | 6.0 | 0.00 | 1.01 | 0.50 | 85 | 1011.5 |
| 20260506125845 | 47 | 284 | 2.0 | 6.0 | 0.00 | 1.01 | 0.50 | 85 | 1011.3 |
| 20260506125113 | 47 | 336 | 2.0 | 6.0 | 0.00 | 1.01 | 0.50 | 87 | 1011.3 |
| 20260506124337 | 47 | 26 | 3.0 | 6.0 | 0.00 | 1.01 | 0.50 | 87 | 1011.2 |
| 20260506123837 | 47 | 8 | 2.0 | 6.0 | 0.00 | 1.01 | 0.50 | 87 | 1011.1 |
| 20260506123816 | 46 | 312 | 2.0 | 5.0 | 0.00 | 1.01 | 0.50 | 89 | 1010.9 |
| 20260506122834 | 46 | 2 | 2.0 | 5.0 | 0.00 | 1.01 | 0.50 | 87 | 1011.1 |
| 20260506122330 | 46 | 6 | 2.0 | 5.0 | 0.00 | 1.01 | 0.50 | 88 | 1011.0 |
| 20260506122049 | 46 | 0 | 3.0 | 5.0 | 0.00 | 1.01 | 0.50 | 88 | 1011.0 |
| 20260506121328 | 46 | 34 | 2.0 | 5.0 | 0.00 | 1.01 | 0.50 | 89 | 1010.9 |
| 20260506120829 | 46 | 64 | 2.0 | 4.0 | 0.00 | 1.01 | 0.50 | 90 | 1010.8 |
| 20260506120329 | 45 | 11 | 2.0 | 4.0 | 0.00 | 1.01 | 0.50 | 89 | 1010.8 |
| 20260506115829 | 45 | 289 | 2.0 | 4.0 | 0.00 | 1.01 | 0.50 | 90 | 1010.6 |
| 20260506115316 | 45 | 41 | 2.0 | 4.0 | 0.00 | 1.02 | 0.50 | 91 | 1010.5 |
| 20260506114816 | 45 | 82 | 2.0 | 4.0 | 0.00 | 1.02 | 0.50 | 91 | 1010.3 |
| 20260506114315 | 45 | 350 | 2.0 | 4.0 | 0.00 | 1.02 | 0.50 | 90 | 1010.2 |
| 20260506113816 | 45 | 324 | 3.0 | 4.0 | 0.00 | 1.02 | 0.50 | 90 | 1010.0 |
| 20260506113316 | 45 | 12 | 2.0 | 4.0 | 0.00 | 1.02 | 0.50 | 90 | 1009.9 |
| 20260506112817 | 45 | 62 | 2.0 | 4.0 | 0.00 | 1.02 | 0.50 | 91 | 1009.6 |
| 20260506112313 | 45 | 67 | 2.0 | 7.0 | 0.00 | 1.02 | 0.50 | 91 | 1009.7 |
| 20260506111808 | 44 | 57 | 3.0 | 7.0 | 0.00 | 1.02 | 0.50 | 91 | 1009.6 |
| 20260506111302 | 44 | 335 | 2.0 | 7.0 | 0.00 | 1.02 | 0.50 | 92 | 1009.6 |
| 20260506111022 | 44 | 303 | 2.0 | 4.0 | 0.00 | 1.02 | 0.50 | 94 | 1009.4 |
| 20260506110302 | 44 | 318 | 2.0 | 4.0 | 0.00 | 1.02 | 0.50 | 95 | 1009.4 |
| 20260506105802 | 44 | 99 | 2.0 | 3.0 | 0.00 | 1.02 | 0.50 | 95 | 1009.2 |
| 20260506105305 | 44 | 350 | 2.0 | 4.0 | 0.00 | 1.02 | 0.50 | 95 | 1008.9 |
| 20260506104802 | 44 | 0 | 2.0 | 4.0 | 0.00 | 1.02 | 0.50 | 95 | 1008.7 |
| 20260506104302 | 45 | 23 | 1.0 | 3.0 | 0.00 | 1.02 | 0.50 | 96 | 1008.6 |
| 20260506103758 | 45 | 19 | 1.0 | 2.0 | 0.00 | 1.02 | 0.50 | 96 | 1008.8 |
| 20260506103257 | 44 | 281 | 2.0 | 4.0 | 0.00 | 1.02 | 0.50 | 95 | 1009.1 |
| 20260506103014 | 44 | 192 | 2.0 | 4.0 | 0.00 | 1.02 | 0.50 | 95 | 1008.9 |
| 20260506102250 | 45 | 352 | 2.0 | 4.0 | 0.00 | 1.02 | 0.50 | 95 | 1008.1 |
| 20260506101749 | 45 | 5 | 2.0 | 5.0 | 0.00 | 1.03 | 0.50 | 96 | 1008.0 |
| 20260506101251 | 45 | 349 | 2.0 | 5.0 | 0.00 | 1.04 | 0.50 | 96 | 1008.1 |
| 20260506101010 | 45 | 321 | 2.0 | 4.0 | 0.00 | 1.04 | 0.50 | 96 | 1007.7 |
| 20260506100252 | 45 | 16 | 1.0 | 4.0 | 0.00 | 1.05 | 0.50 | 96 | 1007.8 |
| 20260506100239 | 45 | 253 | 1.0 | 2.0 | 0.00 | 1.07 | 0.50 | 96 | 1008.0 |
| 20260506095252 | 45 | 1 | 1.0 | 2.0 | 0.00 | 1.08 | 0.50 | 96 | 1008.1 |
| 20260506094751 | 45 | 315 | 1.0 | 3.0 | 0.00 | 1.09 | 0.50 | 96 | 1008.1 |
| 20260506094518 | 45 | 329 | 1.0 | 3.0 | 0.00 | 1.10 | 0.50 | 96 | 1008.0 |
| 20260506093734 | 45 | 322 | 0.0 | 2.0 | 0.00 | 1.11 | 0.50 | 95 | 1008.0 |
| 20260506093232 | 45 | 133 | 1.0 | 6.0 | 0.00 | 1.13 | 0.50 | 95 | 1007.9 |
| 20260506092736 | 45 | 0 | 2.0 | 6.0 | 0.00 | 1.14 | 0.50 | 95 | 1007.8 |
| 20260506092235 | 45 | 313 | 2.0 | 6.0 | 0.00 | 1.15 | 0.50 | 95 | 1007.7 |
| 20260506091734 | 45 | 338 | 2.0 | 5.0 | 0.00 | 1.15 | 0.50 | 95 | 1007.5 |
| 20260506091235 | 45 | 134 | 2.0 | 4.0 | 0.00 | 1.16 | 0.50 | 95 | 1007.6 |
| 20260506090733 | 45 | 332 | 2.0 | 4.0 | 0.00 | 1.16 | 0.50 | 95 | 1007.6 |
| 20260506090455 | 45 | 23 | 2.0 | 4.0 | 0.00 | 1.16 | 0.50 | 95 | 1007.5 |
| 20260506085734 | 45 | 340 | 2.0 | 4.0 | 0.00 | 1.16 | 0.50 | 96 | 1007.6 |
| 20260506085232 | 45 | 37 | 2.0 | 4.0 | 0.01 | 1.16 | 0.50 | 96 | 1007.6 |
| 20260506084732 | 45 | 34 | 2.0 | 4.0 | 0.02 | 1.16 | 0.50 | 96 | 1007.8 |
| 20260506084232 | 45 | 66 | 2.0 | 6.0 | 0.03 | 1.16 | 0.50 | 96 | 1007.5 |